CAPE
0 0 0 0 0 0 0 0 0 0 0 0 0 0 0 0 0 0 0 0 0 0 0 0 0 0 0 0 0 0 0 0 0 0 0 0 0 0 0 0 0 0 0
0 0 0 0 0 0 0 0 0 0 0 0 0 0 0 0 0 0 0 0 0 0 0 0 0 0 0 0 0 0 0 0 0 0 0 0 0 0 0 0 0 0 0
0 0 0 0 0 0 0 0 0 0 0 0 0 0 0 0 0 0 0 0 0 0 0 0 0 0 0 0 0 0 0 0 0 0 0 0 1 0 0 0 0 0 0
0 0 0 0 0 0 0 0 0 0 0 0 0 0 0 0 0 0 0 0 0 0 0 0 0 0 0 0 0 0 0 0 0 0 1 1 0 0 1 0 0 0 0
0 0 0 0 0 0 0 0 0 0 0 0 0 0 0 0 0 0 0 0 0 0 0 0 0 0 0 0 0 0 0 0 0 0 0 0 0 0 0 0 0 0 0
0 0 0 0 0 0 0 0 0 0 0 0 0 0 0 0 0 0 0 0 0 0 0 0 0 0 0 0 0 0 0 0 0 1 0 0 0 0 0 0 0 0 0
0 0 0 0 0 0 0 0 0 0 0 0 0 0 0 0 0 0 0 0 0 0 0 0 0 0 0 0 0 0 0 0 0 1 1 1 0 0 0 0 0 0 1
0 0 0 0 0 0 0 0 0 0 0 0 0 0 0 0 0 0 0 0 0 0 0 0 0 0 0 0 0 0 0 0 0 0 0 0 0 0 0 0 0 1 5
0 0 0 0 0 0 0 0 0 0 0 0 0 0 0 0 0 0 0 0 0 0 0 0 0 0 0 0 2 0 0 0 0 0 0 1 4 3 5 6 3 7 2
0 0 0 0 0 0 0 0 0 0 0 0 0 0 0 0 0 0 0 0 0 0 0 0 0 0 0 2 1 3 3 0 1 3 0 0 0 0 1 0 0 1 1
0 0 0 0 0 0 0 0 0 0 0 0 0 0 0 0 0 0 0 0 0 0 0 0 0 0 6 13 4 0 0 3 1 1 1 2 1 4 7 5 2 1 1
0 0 0 0 0 0 0 0 0 0 0 0 0 0 0 0 0 0 0 0 0 0 0 1 3 4 0 0 0 0 1 1 0 0 0 0 0 0 0 0 0 1 4
0 0 0 0 0 0 0 0 0 0 0 0 0 0 0 0 0 0 0 0 0 1 2 1 0 0 0 0 0 0 0 0 0 0 0 0 0 0 0 0 0 0 0
0 0 0 0 0 0 0 0 0 0 0 0 0 0 0 0 0 0 0 0 1 2 0 0 0 0 0 0 0 0 0 0 0 0 0 0 0 0 0 0 0 0 0
0 0 0 0 0 0 0 0 0 0 0 0 0 0 0 0 0 0 0 1 2 2 0 0 0 0 0 0 0 0 0 0 0 0 0 0 0 0 0 0 0 0 0
0 0 0 0 0 0 0 0 0 0 0 0 0 0 0 0 2 0 1 1 3 0 0 0 0 0 0 0 0 0 0 0 0 0 0 0 0 0 0 0 0 0 0
0 0 0 0 0 0 0 0 0 0 0 0 0 0 0 0 1 0 2 2 0 0 0 0 0 0 0 0 0 0 0 0 0 0 0 0 0 0 0 0 0 0 0
0 0 0 0 0 0 0 0 0 0 0 0 0 0 0 0 0 1 1 0 0 0 0 0 0 0 0 0 0 0 0 0 0 0 0 0 0 0 0 0 0 0 0
0 0 0 0 0 0 0 0 0 0 0 0 0 0 0 0 0 0 0 0 0 0 0 0 0 0 0 0 0 0 0 0 0 0 0 0 0 0 0 0 0 0 0
0 0 0 0 0 0 0 0 0 0 0 0 0 0 0 0 0 0 0 0 0 0 0 0 0 0 0 0 0 0 0 0 0 0 0 0 0 0 0 0 0 0 0
0 0 0 0 0 0 0 0 0 0 0 0 0 0 0 0 0 0 0 0 0 0 0 0 0 0 0 0 0 0 0 0 0 0 0 0 0 0 0 0 0 0 0
0 0 0 0 0 0 0 0 0 0 0 0 0 0 0 0 0 0 0 0 0 0 0 0 0 0 0 0 0 0 0 0 0 0 0 0 0 0 0 0 0 0 0
0 0 0 0 0 0 0 0 0 0 0 0 0 0 0 0 0 0 0 0 0 0 0 0 0 0 0 0 0 0 0 0 0 0 0 0 0 0 0 0 0 0 0
0 0 0 0 0 0 0 0 0 0 0 0 0 0 0 0 0 0 0 0 0 0 0 0 0 0 0 0 0 0 0 0 0 0 0 0 0 0 0 0 0 0 0
0 0 0 0 0 0 0 0 0 0 0 0 0 0 0 0 0 0 0 0 0 0 0 0 0 0 0 0 0 0 0 0 0 0 0 0 0 0 0 0 0 0 0
0 0 0 0 0 0 0 0 0 0 0 0 0 0 0 0 0 0 0 0 0 0 0 0 0 0 0 0 0 0 0 0 0 0 0 0 0 0 0 0 0 0 0
CIN
-0 -0 -0 -0 -0 -0 -0 -0 -0 -0 -0 -0 -0 -0 -0 -0 -0 -0 -0 -0 -0 -0 -0 -0 -0 -0 -0 -0 -0 -0 -0 -0 -0 -0 -0 -0 -0 -0 -0 -0 -0 -0 -0
-0 -0 -0 -0 -0 -0 -0 -0 -0 -0 -0 -0 -0 -0 -0 -0 -0 -0 -0 -0 -0 -0 -0 -0 -0 -0 -0 -0 -0 -0 -0 -0 -0 -0 -0 -0 -0 -0 -0 -0 -0 -0 -0
-0 -0 -0 -0 -0 -0 -0 -0 -0 -0 -0 -0 -0 -0 -0 -0 -0 -0 -0 -0 -0 -0 -0 -0 -0 -0 -0 -0 -0 -0 -0 -0 -0 -0 -0 -0 -0 -0 -0 -0 -0 -0 -0
-0 -0 -0 -0 -0 -0 -0 -0 -0 -0 -0 -0 -0 -0 -0 -0 -0 -0 -0 -0 -0 -0 -0 -0 -0 -0 -0 -0 -0 -0 -0 -0 -0 -0 -0 -0 -0 -0 -1 -0 -0 -0 -0
-0 -0 -0 -0 -0 -0 -0 -0 -0 -0 -0 -0 -0 -0 -0 -0 -0 -0 -0 -0 -0 -0 -0 -0 -0 -0 -0 -0 -0 -0 -0 -0 -0 -0 -0 -0 -0 -0 -0 -2 -0 -0 -0
-0 -0 -0 -0 -0 -0 -0 -0 -0 -0 -0 -0 -0 -0 -0 -0 -0 -0 -0 -0 -0 -0 -0 -0 -0 -0 -0 -0 -0 -0 -1 -1 -0 -0 -0 -0 -0 -3 -0 -0 -0 -0 -0
-0 -0 -0 -0 -0 -0 -0 -0 -0 -0 -0 -0 -0 -0 -0 -0 -0 -0 -0 -0 -0 -0 -0 -0 -0 -0 -0 -0 -0 -0 -0 -0 -4 -1 -0 -2 -0 -0 -1 -1 -0 -3 -0
-0 -0 -0 -0 -0 -0 -0 -0 -0 -0 -0 -0 -0 -0 -0 -0 -0 -0 -0 -0 -0 -0 -0 -0 -0 -0 -0 -0 -0 -0 -0 -0 -0 -0 -0 -0 -0 -0 -0 -0 -0 -0 -0
-0 -0 -0 -0 -0 -0 -0 -0 -0 -0 -0 -0 -0 -0 -0 -0 -0 -0 -0 -0 -0 -0 -0 -0 -0 -0 -0 -4 -1 -1 -0 -0 -0 -0 -0 -2 -2 -3 -3 -2 -1 -0 -0
-0 -0 -0 -0 -0 -0 -0 -0 -0 -0 -0 -0 -0 -0 -0 -0 -0 -0 -0 -0 -0 -0 -0 -0 -1 -1 -3 -4 -2 -2 -3 -7 -1 -1 -0 -0 -0 -0 -1 -0 -0 -0 -0
-0 -0 -0 -0 -0 -0 -0 -0 -0 -0 -0 -0 -0 -0 -0 -0 -0 -0 -0 -0 -0 -0 -0 -0 -0 -2 -3 -2 -2 -2 -1 -2 -1 -0 -0 -0 -0 -0 -0 -0 -1 -1 -0
-0 -0 -0 -0 -0 -0 -0 -0 -0 -0 -0 -0 -0 -0 -0 -0 -0 -0 -0 -0 -0 -0 -1 -2 -2 -2 -1 -0 -0 -0 -1 -2 -0 -0 -0 -0 -0 -0 -0 -1 -0 -1 -0
-0 -0 -0 -0 -0 -0 -0 -0 -0 -0 -0 -0 -0 -0 -0 -0 -0 -0 -0 -0 -0 -2 -1 -2 -0 -0 -0 -0 -0 -0 -0 -0 -0 -0 -0 -0 -0 -0 -0 -0 -0 -0 -0
-0 -0 -0 -0 -0 -0 -0 -0 -0 -0 -0 -0 -0 -0 -0 -0 -0 -0 -0 -0 -2 -2 -0 -0 -0 -0 -0 -0 -0 -0 -0 -0 -0 -0 -0 -0 -0 -0 -0 -0 -0 -0 -0
-0 -0 -0 -0 -0 -0 -0 -0 -0 -0 -0 -0 -0 -0 -0 -0 -0 -0 -1 -1 -1 -0 -0 -0 -0 -0 -0 -0 -0 -0 -0 -0 -0 -0 -0 -0 -0 -0 -0 -0 -0 -0 -0
-0 -0 -0 -0 -0 -0 -0 -0 -0 -0 -0 -0 -0 -0 -0 -0 -1 -1 -2 -2 -2 -0 -0 -0 -0 -0 -0 -0 -0 -0 -0 -0 -0 -0 -0 -0 -0 -0 -0 -0 -0 -0 -0
-0 -0 -0 -0 -0 -0 -0 -0 -0 -0 -0 -0 -0 -0 -0 -0 -1 -1 -2 -2 -0 -0 -0 -0 -0 -0 -0 -0 -0 -0 -0 -0 -0 -0 -0 -0 -0 -0 -0 -0 -0 -0 -0
-0 -0 -0 -0 -0 -0 -0 -0 -0 -0 -0 -0 -0 -0 -0 -0 -0 -1 -1 -0 -0 -0 -0 -0 -0 -0 -0 -0 -0 -0 -0 -0 -0 -0 -0 -0 -0 -0 -0 -0 -0 -0 -0
-0 -0 -0 -0 -0 -0 -0 -0 -0 -0 -0 -0 -0 -0 -0 -0 -0 -0 -0 -0 -0 -0 -0 -0 -0 -0 -0 -0 -0 -0 -0 -0 -0 -0 -0 -0 -0 -0 -0 -0 -0 -0 -0
-0 -0 -0 -0 -0 -0 -0 -0 -0 -0 -0 -0 -0 -0 -0 -0 -0 -0 -0 -0 -0 -0 -0 -0 -0 -0 -0 -0 -0 -0 -0 -0 -0 -0 -0 -0 -0 -0 -0 -0 -0 -0 -0
-0 -0 -0 -0 -0 -0 -0 -0 -0 -0 -0 -0 -0 -0 -0 -0 -0 -0 -0 -0 -0 -0 -0 -0 -0 -0 -0 -0 -0 -0 -0 -0 -0 -0 -0 -0 -0 -0 -0 -0 -0 -0 -0
-0 -0 -0 -0 -0 -0 -0 -0 -0 -0 -0 -0 -0 -0 -0 -0 -0 -0 -0 -0 -0 -0 -0 -0 -0 -0 -0 -0 -0 -0 -0 -0 -0 -0 -0 -0 -0 -0 -0 -0 -0 -0 -0
-0 -0 -0 -0 -0 -0 -0 -0 -0 -0 -0 -0 -0 -0 -0 -0 -0 -0 -0 -0 -0 -0 -0 -0 -0 -0 -0 -0 -0 -0 -0 -0 -0 -0 -0 -0 -0 -0 -0 -0 -0 -0 -0
-0 -0 -0 -0 -0 -0 -0 -0 -0 -0 -0 -0 -0 -0 -0 -0 -0 -0 -0 -0 -0 -0 -0 -0 -0 -0 -0 -0 -0 -0 -0 -0 -0 -0 -0 -0 -0 -0 -0 -0 -0 -0 -0
-0 -0 -0 -0 -0 -0 -0 -0 -0 -0 -0 -0 -0 -0 -0 -0 -0 -0 -0 -0 -0 -0 -0 -0 -0 -0 -0 -0 -0 -0 -0 -0 -0 -0 -0 -0 -0 -0 -0 -0 -0 -0 -0
-0 -0 -0 -0 -0 -0 -0 -0 -0 -0 -0 -0 -0 -0 -0 -0 -0 -0 -0 -0 -0 -0 -0 -0 -0 -0 -0 -0 -0 -0 -0 -0 -0 -0 -0 -0 -0 -0 -0 -0 -0 -0 -0
Wind_Speed
11 13 15 16 17 18 20 21 22 24 25 28 29 31 32 33 34 34 35 35 38 39 40 42 43 44 45 45 46 46 48 49 58 60 56 54 56 55 54 52 52 52 51
13 14 15 15 17 19 20 22 22 24 25 27 29 31 32 33 34 35 36 37 39 41 42 42 44 44 46 46 46 48 49 49 53 62 58 57 57 55 55 56 54 52 53
14 16 17 18 19 20 21 21 22 24 26 28 30 32 34 34 35 35 36 37 38 39 40 42 44 45 46 46 47 48 48 49 51 56 62 56 56 55 58 56 55 55 53
17 17 19 19 20 20 20 21 23 25 27 29 30 32 33 34 34 34 36 37 38 39 40 41 43 44 46 48 48 48 48 50 50 53 56 57 55 54 54 57 58 53 54
18 19 21 20 19 20 22 23 23 26 28 30 31 32 33 33 33 35 36 38 39 40 41 42 43 44 46 47 47 48 49 49 50 51 54 54 54 53 54 54 58 57 56
20 22 21 21 21 22 23 24 26 28 29 30 31 32 33 32 33 34 36 38 39 40 43 43 44 45 46 46 46 46 46 48 49 50 51 52 53 50 50 51 54 57 63
22 22 21 21 22 23 24 26 28 29 29 30 30 31 32 32 32 34 36 37 39 40 42 44 45 44 45 45 44 44 42 42 43 45 49 49 51 47 47 49 50 52 55
22 22 22 23 24 25 26 28 28 28 29 29 29 30 32 32 33 34 36 37 37 39 40 42 44 46 45 44 44 42 40 39 39 39 40 43 44 43 43 45 48 49 49
22 23 23 24 25 26 27 27 26 27 27 28 28 30 32 33 33 34 36 37 37 39 40 41 42 44 43 43 45 45 43 40 37 38 39 42 45 45 45 45 46 47 50
22 23 23 24 24 24 24 24 24 25 26 27 29 30 32 33 33 33 34 35 38 40 41 41 41 43 44 44 43 44 46 44 44 43 38 38 38 38 41 40 41 45 47
22 21 21 21 21 21 21 22 23 24 26 28 31 32 32 31 32 33 33 34 37 41 43 44 42 43 44 46 48 47 49 52 50 45 42 40 38 35 34 35 35 37 44
20 20 20 19 18 19 20 21 23 25 28 30 32 33 31 30 31 32 33 33 36 40 42 41 42 45 49 48 47 47 48 47 43 42 41 40 39 37 36 36 37 38 38
19 19 18 18 18 19 21 23 25 26 29 32 33 34 33 31 31 31 32 34 36 38 38 40 43 44 43 42 43 45 43 40 41 41 41 40 39 38 40 40 39 40 41
20 19 19 19 20 21 22 24 25 28 30 31 33 34 34 33 33 30 32 33 33 37 36 37 39 39 38 39 40 39 38 38 39 39 38 39 39 38 39 38 40 40 41
20 20 20 21 22 24 24 25 26 27 29 32 33 33 34 35 32 30 33 34 36 38 39 38 38 36 37 37 38 38 38 38 38 38 39 40 39 39 38 37 37 38 39
20 21 22 23 24 25 27 28 27 27 28 29 30 31 31 29 29 31 32 34 37 38 36 35 35 35 36 37 37 38 37 38 38 39 38 37 38 38 38 37 37 36 39
20 21 22 24 25 26 27 30 33 30 28 29 30 29 29 29 30 31 31 34 35 35 32 31 33 35 35 35 36 36 38 38 38 37 37 36 36 36 37 38 38 37 37
20 22 22 24 26 27 29 30 31 33 34 33 28 30 29 29 29 29 30 32 34 30 28 32 34 33 33 34 34 35 36 37 36 36 36 36 36 38 40 40 37 36 37
20 23 25 27 29 30 31 33 34 34 35 34 32 30 28 27 28 28 29 29 30 30 32 33 32 31 31 31 31 31 32 32 32 34 35 37 39 39 40 37 35 34 35
24 26 28 30 31 33 34 35 36 36 36 34 32 31 29 27 28 27 28 29 31 33 31 31 30 28 28 28 28 28 29 29 29 31 34 36 39 39 38 36 34 34 35
27 29 30 32 34 35 37 38 38 38 36 34 33 31 29 29 29 27 29 29 35 34 33 30 29 27 26 25 25 25 26 26 27 28 33 33 37 40 37 34 32 31 31
29 31 33 35 37 38 39 40 38 37 36 36 35 33 31 31 30 30 30 33 35 33 30 28 26 23 22 21 22 24 24 24 27 28 30 34 31 35 33 31 29 26 28
30 32 34 36 38 39 40 38 37 37 36 35 34 33 32 31 31 32 33 37 35 33 29 25 22 20 20 19 18 20 21 21 23 27 28 29 34 36 34 24 23 22 24
31 33 35 37 38 39 37 38 37 35 34 33 32 31 32 32 33 34 37 37 34 33 30 26 20 16 17 17 18 19 20 18 20 23 24 25 30 35 36 34 32 28 25
31 33 35 36 36 35 35 34 31 28 27 27 28 29 32 33 33 35 36 35 34 34 33 25 19 15 14 14 13 15 16 16 18 18 22 27 30 31 31 32 33 32 31
32 33 32 32 31 31 30 28 25 23 22 23 25 30 32 32 33 34 34 33 33 33 33 31 12 9 10 13 12 13 16 16 18 19 24 28 30 30 30 30 32 31 31
Wind_Direction
320 322 324 325 326 328 327 327 328 329 329 329 330 330 329 329 329 328 327 327 324 323 323 321 319 318 315 312 310 307 304 301 296 296 296 297 295 294 293 292 290 288 287
308 311 313 315 317 319 320 324 327 328 330 331 330 330 329 328 328 326 325 325 324 323 322 322 320 320 317 315 312 308 305 303 299 296 296 296 294 294 293 291 289 287 285
299 303 305 307 308 312 316 321 325 327 329 329 329 328 327 326 326 326 325 325 324 324 323 322 321 320 318 316 314 310 308 305 302 298 295 297 295 294 291 291 290 287 285
294 296 298 299 303 309 314 318 322 325 327 327 328 327 327 326 325 325 325 325 324 324 324 323 322 320 319 317 314 311 309 306 304 301 299 297 297 296 293 290 287 287 285
289 291 294 297 301 305 309 314 319 322 324 325 325 326 326 326 325 325 325 324 324 323 323 323 322 320 318 316 314 312 310 307 305 303 300 299 298 297 294 292 288 286 284
287 289 293 295 298 301 305 310 315 318 320 322 323 324 325 325 325 325 325 324 324 323 323 323 323 322 320 318 315 313 311 308 304 303 301 298 298 299 297 294 290 287 282
285 288 289 291 294 298 303 307 311 313 317 319 321 324 324 325 325 325 325 324 324 324 324 324 324 324 322 320 319 316 314 311 308 305 300 299 298 299 298 296 294 290 287
285 288 289 290 292 297 301 304 307 311 314 317 320 323 324 325 325 325 325 324 324 325 325 325 325 324 324 322 320 318 315 313 311 308 305 302 300 300 298 297 295 293 292
289 287 289 290 292 295 298 302 306 310 312 315 320 323 324 324 325 325 325 325 325 325 326 327 326 325 324 322 320 317 315 314 312 309 306 303 300 298 297 297 295 294 291
293 293 294 294 294 295 298 302 307 309 312 315 319 322 323 323 324 325 325 325 325 326 327 327 327 326 325 323 321 318 315 316 313 311 311 308 306 303 298 297 297 293 292
300 301 301 299 297 297 301 304 307 309 312 314 317 320 321 322 324 325 325 325 326 325 325 326 328 327 325 322 318 316 311 302 305 308 309 309 308 308 305 303 300 298 294
305 305 304 304 303 301 302 305 307 309 311 313 316 318 321 322 323 325 325 326 327 325 326 328 328 326 322 319 318 313 309 308 310 308 308 308 308 308 308 306 305 303 300
305 304 303 305 305 305 303 305 308 309 310 312 315 317 319 321 323 324 325 326 327 327 328 328 328 327 325 325 320 315 318 317 314 311 309 308 309 309 307 306 307 305 303
300 302 303 302 304 305 306 306 307 309 310 312 314 315 317 319 322 324 326 328 329 329 330 331 330 328 328 326 325 327 327 324 321 318 316 314 313 312 310 311 308 308 306
301 302 301 303 304 306 305 306 307 308 310 311 312 314 315 316 319 322 324 326 328 329 329 329 328 328 327 327 327 329 331 330 326 323 318 316 315 314 313 314 312 311 308
300 302 302 304 306 307 308 309 308 309 310 310 310 311 314 314 317 320 322 325 328 328 328 328 326 324 323 324 327 330 334 335 332 328 327 323 319 318 317 316 315 313 310
302 305 306 306 307 308 309 309 310 313 313 312 312 313 312 312 315 318 321 324 328 329 328 327 322 320 322 325 328 332 334 336 338 338 335 331 326 323 319 317 317 317 316
309 311 311 310 310 310 310 310 310 311 311 312 314 313 313 312 313 316 320 324 326 329 327 320 317 321 324 328 331 334 336 339 341 343 341 336 330 322 316 317 320 322 321
315 314 313 312 312 311 311 310 310 309 309 310 311 311 312 312 313 315 319 323 325 323 317 316 318 323 327 330 333 337 339 343 346 346 345 338 328 322 321 325 326 326 324
316 315 315 314 313 312 311 310 309 308 307 307 306 306 308 311 311 313 316 320 318 311 316 318 321 326 330 332 336 339 341 345 348 348 347 344 333 328 329 332 333 331 328
317 317 316 315 314 312 311 309 308 306 304 303 302 302 302 303 306 309 313 315 303 305 311 317 321 327 332 336 339 340 342 345 347 350 347 349 342 334 337 339 340 339 336
318 318 318 316 316 314 313 311 308 305 303 300 299 298 298 298 299 303 307 303 300 306 313 319 324 331 337 340 341 341 343 345 345 347 349 346 352 346 348 350 352 352 348
322 321 321 320 319 318 316 313 310 306 303 300 297 296 295 294 294 296 297 290 297 303 312 321 327 334 339 342 344 344 344 346 347 346 347 350 345 344 348 3 4 5 360
325 324 324 324 324 322 320 317 314 310 305 301 297 293 290 291 290 289 283 283 292 297 305 317 330 338 342 345 346 346 346 348 348 348 349 351 349 343 340 347 355 2 6
326 327 328 329 329 329 328 326 324 319 313 305 300 293 284 286 284 281 272 280 283 283 286 316 333 341 343 345 345 346 347 347 350 351 351 347 344 347 351 352 351 357 359
326 328 330 332 335 336 336 336 336 332 324 312 300 281 277 276 274 265 268 273 273 275 279 300 338 338 341 344 345 348 350 350 351 353 349 344 341 345 350 354 353 357 358